W5IM Weather Reports


Display with metric or nautical units.
time (UTC)temp
F
wind
direction
speed
MPH
gust
MPH
rain 1hr
in
rain 24hr
in
rain mn
in
humidity
%
barometer
mb
20260901060007 83 163 5.0 7.0 0.00 0.00 0.00 84 1014.4
20260901055507 82 171 5.0 7.0 0.00 0.00 0.00 84 1014.3
20260901055007 82 163 6.0 8.0 0.00 0.00 0.00 84 1014.3
20260901054507 83 167 5.0 7.0 0.00 0.00 0.00 83 1014.3
20260901054008 83 175 3.0 6.0 0.00 0.00 0.00 83 1014.3
20260901053507 83 194 3.0 6.0 0.00 0.00 0.00 83 1014.3
20260901053008 83 178 2.0 8.0 0.00 0.00 0.00 83 1014.2
20260901052507 83 185 3.0 6.0 0.00 0.00 0.00 82 1014.2
20260901052008 83 174 2.0 6.0 0.00 0.00 0.00 82 1014.2
20260901051507 83 172 5.0 9.0 0.00 0.00 0.00 82 1014.2
20260901050508 83 174 5.0 8.0 0.00 0.00 0.00 82 1014.1
20260901050008 83 178 5.0 8.0 0.00 0.00 0.00 82 1014.1
20260901045007 83 181 5.0 12.0 0.00 0.00 0.00 82 1014.1
20260901044507 83 168 6.0 8.0 0.00 0.00 0.00 82 1014.2
20260901044007 83 162 6.0 10.0 0.00 0.00 0.00 82 1014.2
20260901043507 83 178 3.0 7.0 0.00 0.00 0.00 82 1014.2
20260901043007 83 180 5.0 9.0 0.00 0.00 0.00 82 1014.1
20260901042508 83 185 4.0 8.0 0.00 0.00 0.00 82 1014.2
20260901042007 83 169 5.0 7.0 0.00 0.00 0.00 82 1014.3
20260901041507 83 168 5.0 10.0 0.00 0.00 0.00 81 1014.3
20260901040007 84 155 7.0 9.0 0.00 0.00 0.00 81 1014.2
20260901035008 84 165 6.0 8.0 0.00 0.00 0.00 81 1014.4
20260901034506 84 171 7.0 9.0 0.00 0.00 0.00 80 1014.3
20260901033510 84 155 7.0 12.0 0.00 0.00 0.00 79 1014.2
20260901033007 84 150 8.0 13.0 0.00 0.00 0.00 80 1014.1
20260901032508 84 151 9.0 13.0 0.00 0.00 0.00 80 1014.1
20260901032007 84 153 10.0 14.0 0.00 0.00 0.00 80 1014.1
20260901031507 84 151 10.0 13.0 0.00 0.00 0.00 79 1014.1
20260901031008 84 153 9.0 14.0 0.00 0.00 0.00 79 1014.0
20260901030507 84 154 8.0 10.0 0.00 0.00 0.00 79 1014.0
20260901030007 84 143 9.0 12.0 0.00 0.00 0.00 79 1013.9
20260901025007 84 149 8.0 12.0 0.00 0.00 0.00 78 1013.9
20260901024507 85 150 10.0 13.0 0.00 0.00 0.00 77 1013.7
20260901024008 85 156 8.0 13.0 0.00 0.00 0.00 77 1013.5
20260901023507 85 154 9.0 13.0 0.00 0.00 0.00 77 1013.5
20260901023007 85 150 8.0 15.0 0.00 0.00 0.00 78 1013.5
20260901022507 85 156 9.0 13.0 0.00 0.00 0.00 78 1013.5
20260901022008 85 146 9.0 13.0 0.00 0.00 0.00 77 1013.4
20260901021507 85 142 9.0 14.0 0.00 0.00 0.00 75 1013.4
20260901021008 85 164 9.0 14.0 0.00 0.00 0.00 75 1013.3
20260901020507 85 147 9.0 14.0 0.00 0.00 0.00 75 1013.2
20260901020007 85 152 10.0 12.0 0.00 0.00 0.00 75 1013.2
20260901015507 85 148 9.0 13.0 0.00 0.00 0.00 74 1013.1
20260901015007 86 147 10.0 18.0 0.00 0.00 0.00 73 1013.0
20260901014507 86 147 13.0 18.0 0.00 0.00 0.00 73 1012.9
20260901014007 86 149 14.0 20.0 0.00 0.00 0.00 73 1012.8
20260901013507 86 149 10.0 17.0 0.00 0.00 0.00 74 1012.7
20260901013007 86 149 12.0 18.0 0.00 0.00 0.00 74 1012.7
20260901012506 86 149 12.0 20.0 0.00 0.00 0.00 72 1012.7
20260901012007 87 151 14.0 18.0 0.00 0.00 0.00 70 1012.6
20260901011506 87 147 12.0 17.0 0.00 0.00 0.00 69 1012.5
20260901011007 87 152 13.0 21.0 0.00 0.00 0.00 68 1012.4
20260901010507 87 146 14.0 20.0 0.00 0.00 0.00 67 1012.4
20260901010007 87 151 12.0 18.0 0.00 0.00 0.00 67 1012.3
20260901005506 88 150 12.0 18.0 0.00 0.00 0.00 65 1012.2
20260901005007 88 144 13.0 20.0 0.00 0.00 0.00 64 1012.1
20260901004507 89 139 11.0 20.0 0.00 0.00 0.00 62 1012.1
20260901004007 89 147 13.0 20.0 0.00 0.00 0.00 61 1012.1
20260901003506 89 142 12.0 17.0 0.00 0.00 0.00 60 1012.1
20260901003008 89 141 14.0 20.0 0.00 0.00 0.00 59 1012.0
20260901002507 90 144 12.0 21.0 0.00 0.00 0.00 58 1011.9
20260901001507 90 145 14.0 20.0 0.00 0.00 0.00 56 1011.8
20260901000506 91 142 14.0 20.0 0.00 0.00 0.00 54 1011.9
20260901000007 91 140 14.0 22.0 0.00 0.00 0.00 52 1011.9
20260831235507 91 135 17.0 22.0 0.00 0.00 0.00 51 1011.8
20260831235007 92 135 15.0 22.0 0.00 0.00 0.00 50 1011.7
20260831234507 92 144 16.0 22.0 0.00 0.00 0.00 50 1011.7
20260831234007 92 132 15.0 20.0 0.00 0.00 0.00 48 1011.6
20260831233506 92 136 14.0 21.0 0.00 0.00 0.00 48 1011.7
20260831233007 93 138 14.0 20.0 0.00 0.00 0.00 46 1011.7
20260831232506 93 148 16.0 22.0 0.00 0.00 0.00 47 1011.7
20260831232007 94 161 14.0 20.0 0.00 0.00 0.00 45 1011.7
20260831231507 94 151 14.0 21.0 0.00 0.00 0.00 44 1011.6
20260831231007 94 145 12.0 21.0 0.00 0.00 0.00 44 1011.6
20260831230506 94 145 16.0 21.0 0.00 0.00 0.00 44 1011.5
20260831230006 94 150 15.0 20.0 0.00 0.00 0.00 43 1011.6
20260831225507 95 141 17.0 22.0 0.00 0.00 0.00 41 1011.6
20260831225007 95 132 14.0 20.0 0.00 0.00 0.00 40 1011.5
20260831224507 95 136 14.0 20.0 0.00 0.00 0.00 40 1011.5
20260831224007 95 129 14.0 20.0 0.00 0.00 0.00 40 1011.5
20260831223507 95 142 13.0 20.0 0.00 0.00 0.00 40 1011.5
20260831223008 96 138 15.0 18.0 0.00 0.00 0.00 40 1011.5
20260831221507 96 134 14.0 21.0 0.00 0.00 0.00 38 1011.5
20260831220507 97 141 13.0 22.0 0.00 0.00 0.00 37 1011.5
20260831220007 98 144 12.0 18.0 0.00 0.00 0.00 36 1011.5
20260831215507 98 133 11.0 16.0 0.00 0.00 0.00 36 1011.5
20260831215007 98 150 12.0 18.0 0.00 0.00 0.00 37 1011.6
20260831214507 98 159 10.0 20.0 0.00 0.00 0.00 37 1011.7
20260831214007 98 136 11.0 17.0 0.00 0.00 0.00 37 1011.7
20260831213506 98 143 11.0 16.0 0.00 0.00 0.00 36 1011.8
20260831213007 98 142 10.0 16.0 0.00 0.00 0.00 37 1011.8
20260831212510 98 171 8.0 14.0 0.00 0.00 0.00 37 1011.8
20260831212010 92 160 7.0 16.0 0.00 0.00 0.00 39 1011.8
20260831211506 96 151 10.0 17.0 0.00 0.00 0.00 38 1011.8
20260831210508 98 149 9.0 15.0 0.00 0.00 0.00 39 1012.0
20260831205507 97 150 11.0 17.0 0.00 0.00 0.00 40 1012.2
20260831205007 97 170 9.0 14.0 0.00 0.00 0.00 41 1012.2
20260831204506 98 143 7.0 13.0 0.00 0.00 0.00 40 1012.2
20260831203507 97 140 9.0 17.0 0.00 0.00 0.00 42 1012.5
20260831203007 96 169 6.0 18.0 0.00 0.00 0.00 45 1012.5
20260831202007 97 144 9.0 14.0 0.00 0.00 0.00 44 1012.7
20260831201506 96 159 9.0 14.0 0.00 0.00 0.00 44 1012.8
20260831201010 97 136 9.0 16.0 0.00 0.00 0.00 43 1012.8
20260831200007 97 136 13.0 16.0 0.00 0.00 0.00 43 1013.0
20260831195507 96 149 8.0 14.0 0.00 0.00 0.00 43 1013.0
20260831195007 96 122 7.0 13.0 0.00 0.00 0.00 43 1013.1
20260831194506 97 149 9.0 14.0 0.00 0.00 0.00 42 1013.2
20260831194007 96 119 9.0 15.0 0.00 0.00 0.00 45 1013.3
20260831193506 95 157 11.0 16.0 0.00 0.00 0.00 45 1013.5
20260831193007 95 119 10.0 14.0 0.00 0.00 0.00 44 1013.5
20260831192507 96 124 10.0 14.0 0.00 0.00 0.00 44 1013.6
20260831192007 96 119 10.0 18.0 0.00 0.00 0.00 44 1013.6
20260831191507 96 154 6.0 13.0 0.00 0.00 0.00 44 1013.6
20260831191007 95 130 5.0 9.0 0.00 0.00 0.00 45 1013.7
20260831190507 96 143 8.0 16.0 0.00 0.00 0.00 44 1013.8
20260831190007 97 145 9.0 16.0 0.00 0.00 0.00 43 1013.8
20260831185506 97 147 10.0 16.0 0.00 0.00 0.00 42 1013.8
20260831185007 98 107 9.0 16.0 0.00 0.00 0.00 41 1013.8
20260831184507 97 134 9.0 12.0 0.00 0.00 0.00 40 1013.9
20260831184006 98 138 10.0 15.0 0.00 0.00 0.00 40 1014.1
20260831183506 98 170 8.0 14.0 0.00 0.00 0.00 42 1014.1
20260831183007 97 134 6.0 13.0 0.00 0.00 0.00 39 1014.1
20260831182007 97 140 3.0 14.0 0.00 0.00 0.00 41 1014.2
20260831181007 97 182 9.0 18.0 0.00 0.00 0.00 43 1014.1
20260831180507 97 167 5.0 13.0 0.00 0.00 0.00 43 1014.2
20260831180006 97 149 6.0 15.0 0.00 0.00 0.00 43 1014.2
20260831175507 97 149 5.0 16.0 0.00 0.00 0.00 44 1014.3
20260831175007 96 161 7.0 12.0 0.00 0.00 0.00 44 1014.3
20260831174507 96 115 6.0 14.0 0.00 0.00 0.00 43 1014.4
20260831174006 95 146 8.0 14.0 0.00 0.00 0.00 44 1014.4
20260831173506 95 192 5.0 13.0 0.00 0.00 0.00 46 1014.4
20260831173007 95 133 7.0 13.0 0.00 0.00 0.00 45 1014.5
20260831172506 95 175 6.0 10.0 0.00 0.00 0.00 46 1014.6
20260831172007 94 193 6.0 13.0 0.00 0.00 0.00 46 1014.5
20260831170506 94 114 5.0 8.0 0.00 0.00 0.00 48 1014.7
20260831170006 94 190 5.0 13.0 0.00 0.00 0.00 50 1014.8
20260831165007 94 157 12.0 13.0 0.00 0.00 0.00 50 1015.0
20260831164007 93 142 7.0 13.0 0.00 0.00 0.00 51 1014.9
20260831163507 93 179 7.0 13.0 0.00 0.00 0.00 51 1015.0
20260831162509 92 162 7.0 12.0 0.00 0.00 0.00 52 1015.0
20260831162008 92 224 7.0 12.0 0.00 0.00 0.00 53 1015.0
20260831161508 92 164 6.0 9.0 0.00 0.00 0.00 55 1015.1
20260831161008 91 195 8.0 12.0 0.00 0.00 0.00 55 1015.0
20260831160508 91 204 6.0 15.0 0.00 0.00 0.00 57 1015.1
20260831160007 91 214 6.0 12.0 0.00 0.00 0.00 58 1015.1
20260831155508 91 199 6.0 13.0 0.00 0.00 0.00 59 1015.1
20260831154507 90 178 5.0 10.0 0.00 0.00 0.00 59 1015.0
20260831154007 90 183 6.0 12.0 0.00 0.00 0.00 59 1015.0
20260831153507 90 185 5.0 14.0 0.00 0.00 0.00 60 1015.0
20260831153008 89 179 5.0 8.0 0.00 0.00 0.00 63 1015.0
20260831152507 89 200 7.0 12.0 0.00 0.00 0.00 63 1015.0
20260831152008 89 214 7.0 12.0 0.00 0.00 0.00 63 1014.9
20260831151507 89 210 7.0 13.0 0.00 0.00 0.00 63 1014.9
20260831151008 89 191 7.0 10.0 0.00 0.00 0.00 64 1015.0
20260831150508 89 191 6.0 9.0 0.00 0.00 0.00 65 1014.9
20260831150007 89 179 6.0 12.0 0.00 0.00 0.00 65 1014.8
20260831145507 89 180 7.0 13.0 0.00 0.00 0.00 65 1014.7
20260831145008 89 166 9.0 13.0 0.00 0.00 0.00 64 1014.7
20260831144508 88 146 7.0 12.0 0.00 0.00 0.00 66 1014.7
20260831144008 88 176 6.0 10.0 0.00 0.00 0.00 68 1014.6
20260831143508 87 164 6.0 9.0 0.00 0.00 0.00 70 1014.6
20260831143008 87 199 6.0 10.0 0.00 0.00 0.00 71 1014.6
20260831142508 87 152 6.0 9.0 0.00 0.00 0.00 72 1014.6
20260831142008 87 191 5.0 9.0 0.00 0.00 0.00 71 1014.6
20260831141507 87 152 6.0 10.0 0.00 0.00 0.00 73 1014.6
20260831141008 86 180 5.0 8.0 0.00 0.00 0.00 76 1014.6
20260831140508 86 158 7.0 9.0 0.00 0.00 0.00 77 1014.7
20260831135507 86 159 6.0 9.0 0.00 0.00 0.00 77 1014.5
20260831135008 85 176 5.0 9.0 0.00 0.00 0.00 79 1014.6
20260831134508 85 170 5.0 8.0 0.00 0.00 0.00 80 1014.6
20260831134008 84 144 6.0 9.0 0.00 0.00 0.00 81 1014.5
20260831133507 84 154 6.0 8.0 0.00 0.00 0.00 81 1014.4
20260831133008 84 149 6.0 8.0 0.00 0.00 0.00 82 1014.4
20260831132508 83 142 6.0 8.0 0.00 0.00 0.00 83 1014.2
20260831132008 83 134 6.0 7.0 0.00 0.00 0.00 85 1014.2
20260831131008 82 146 5.0 7.0 0.00 0.00 0.00 88 1014.2
20260831130507 82 143 5.0 6.0 0.00 0.00 0.00 88 1014.1
20260831130007 81 131 4.0 6.0 0.00 0.00 0.00 89 1014.1
20260831125509 81 132 5.0 6.0 0.00 0.00 0.00 90 1014.1
20260831125008 81 137 5.0 7.0 0.00 0.00 0.00 90 1014.1
20260831124508 80 127 3.0 6.0 0.00 0.00 0.00 91 1014.0
20260831124008 80 131 3.0 5.0 0.00 0.00 0.00 91 1014.0
20260831123507 80 137 3.0 6.0 0.00 0.00 0.00 91 1013.9
20260831123007 80 144 3.0 6.0 0.00 0.00 0.00 91 1013.9
20260831122508 80 153 4.0 5.0 0.00 0.00 0.00 91 1013.9
20260831122008 80 143 3.0 5.0 0.00 0.00 0.00 91 1013.9
20260831120008 80 152 3.0 5.0 0.00 0.00 0.00 91 1013.7
20260831115507 80 150 2.0 5.0 0.00 0.00 0.00 91 1013.7
20260831115007 80 139 2.0 5.0 0.00 0.00 0.00 91 1013.7
20260831114508 80 135 3.0 5.0 0.00 0.00 0.00 91 1013.6
20260831114009 80 137 4.0 6.0 0.00 0.00 0.00 90 1013.6
20260831113507 80 148 4.0 6.0 0.00 0.00 0.00 90 1013.5
20260831113008 80 151 3.0 6.0 0.00 0.00 0.00 90 1013.4
20260831112507 80 158 3.0 6.0 0.00 0.00 0.00 90 1013.3
20260831111507 80 164 5.0 7.0 0.00 0.00 0.00 90 1013.5
20260831111008 81 151 6.0 8.0 0.00 0.00 0.00 90 1013.5
20260831110508 81 155 5.0 7.0 0.00 0.00 0.00 89 1013.5
20260831105507 81 165 3.0 5.0 0.00 0.00 0.00 89 1013.4
20260831104507 81 170 4.0 6.0 0.00 0.00 0.00 89 1013.4
20260831103008 81 171 4.0 6.0 0.00 0.00 0.00 88 1013.5
20260831102007 81 165 3.0 5.0 0.00 0.00 0.00 88 1013.6
20260831101508 81 173 4.0 6.0 0.00 0.00 0.00 88 1013.6
20260831101008 81 164 5.0 6.0 0.00 0.00 0.00 88 1013.6
20260831100507 81 166 5.0 8.0 0.00 0.00 0.00 88 1013.7
20260831100007 81 152 6.0 9.0 0.00 0.00 0.00 88 1013.8
20260831095007 81 173 5.0 8.0 0.00 0.00 0.00 88 1013.6
20260831094507 81 164 5.0 7.0 0.00 0.00 0.00 87 1013.7
20260831094008 81 166 6.0 7.0 0.00 0.00 0.00 87 1013.6
20260831093007 82 163 6.0 7.0 0.00 0.00 0.00 87 1013.6
20260831092507 82 167 4.0 8.0 0.00 0.00 0.00 86 1013.5
20260831091507 81 178 5.0 7.0 0.00 0.00 0.00 86 1013.5
20260831091007 81 171 5.0 7.0 0.00 0.00 0.00 86 1013.6
20260831090507 81 160 6.0 9.0 0.00 0.00 0.00 86 1013.6
20260831090007 82 168 5.0 8.0 0.00 0.00 0.00 86 1013.7
20260831085507 82 175 5.0 8.0 0.00 0.00 0.00 85 1013.7
20260831085007 82 177 4.0 8.0 0.00 0.00 0.00 85 1013.7
20260831084507 82 181 5.0 9.0 0.00 0.00 0.00 85 1013.7
20260831084008 82 167 5.0 8.0 0.00 0.00 0.00 85 1013.8
20260831083008 82 162 6.0 9.0 0.00 0.00 0.00 85 1013.9
20260831082007 82 177 5.0 9.0 0.00 0.00 0.00 84 1013.8
20260831081508 82 176 5.0 8.0 0.00 0.00 0.00 85 1013.9
20260831081007 82 176 6.0 9.0 0.00 0.00 0.00 85 1014.0
20260831080507 82 176 6.0 8.0 0.00 0.00 0.00 85 1014.0
20260831080007 82 171 5.0 10.0 0.00 0.00 0.00 84 1014.1
20260831075507 82 169 5.0 9.0 0.00 0.00 0.00 84 1014.1
20260831075008 82 170 5.0 9.0 0.00 0.00 0.00 84 1014.1
20260831074507 82 174 5.0 9.0 0.00 0.00 0.00 84 1014.1
20260831074008 82 174 6.0 9.0 0.00 0.00 0.00 85 1014.2
20260831073507 82 162 6.0 9.0 0.00 0.00 0.00 84 1014.2
20260831073008 82 165 5.0 8.0 0.00 0.00 0.00 84 1014.3
20260831072507 82 172 6.0 9.0 0.00 0.00 0.00 84 1014.3
20260831072007 82 166 6.0 7.0 0.00 0.00 0.00 84 1014.3
20260831071506 82 164 5.0 8.0 0.00 0.00 0.00 84 1014.4
20260831071011 82 175 5.0 7.0 0.00 0.00 0.00 85 1014.4
20260831070507 82 161 6.0 9.0 0.00 0.00 0.00 84 1014.4
20260831070007 82 169 5.0 9.0 0.00 0.00 0.00 84 1014.4
20260831065507 82 158 6.0 9.0 0.00 0.00 0.00 84 1014.4
20260831064507 82 166 6.0 9.0 0.00 0.00 0.00 84 1014.3
20260831064008 82 171 5.0 8.0 0.00 0.00 0.00 84 1014.2
20260831063507 82 169 5.0 8.0 0.00 0.00 0.00 84 1014.2
20260831063008 82 165 2.0 7.0 0.00 0.00 0.00 83 1014.1
20260831062008 83 176 3.0 7.0 0.00 0.00 0.00 83 1014.1
20260831061507 83 175 3.0 6.0 0.00 0.00 0.00 83 1014.2
20260831061008 83 173 4.0 7.0 0.00 0.00 0.00 83 1014.2
20260831060507 83 164 4.0 7.0 0.00 0.00 0.00 82 1014.2